• In Belarus
  • List of Countries
  • For 7 days
  • Water Temperature
  • Satellite Maps
  • Weather Map
  • Weather Widgets
  • user-avatar
    Login

    Hourly Weather Zenica

    Today, 22 January, Monday

    Time Temperature Precipitation Wind Pressure Humidity
    00:00 -7°C° 0.1 mm 4 mps 672 mmHg 90%
    01:00 -7°C° 0 mm 3 mps 672 mmHg 90%
    02:00 -7°C° 0 mm 3 mps 672 mmHg 91%
    03:00 -7°C° 0 mm 3 mps 673 mmHg 91%
    04:00 -8°C° 0 mm 3 mps 673 mmHg 92%
    05:00 -7°C° 0 mm 2 mps 673 mmHg 92%
    06:00 -8°C° 0 mm 2 mps 673 mmHg 92%
    07:00 -8°C° 0 mm 2 mps 673 mmHg 93%
    08:00 -7°C° 0 mm 2 mps 673 mmHg 89%
    09:00 -6°C° 0 mm 2 mps 674 mmHg 86%
    10:00 -3°C° 0 mm 1 mps 674 mmHg 82%
    11:00 -2°C° 0 mm 1 mps 674 mmHg 79%
    12:00 -1°C° 0 mm 1 mps 674 mmHg 75%
    13:00 0°C° 0 mm 1 mps 674 mmHg 72%
    14:00 -1°C° 0 mm 1 mps 674 mmHg 74%
    15:00 -1°C° 0 mm 1 mps 674 mmHg 76%
    16:00 -1°C° 0 mm 1 mps 674 mmHg 78%
    17:00 -2°C° 0 mm 1 mps 673 mmHg 78%
    18:00 -3°C° 0 mm 1 mps 673 mmHg 78%
    19:00 -4°C° 0 mm 1 mps 673 mmHg 79%
    20:00 -4°C° 0 mm 1 mps 673 mmHg 77%
    21:00 -4°C° 0 mm 1 mps 673 mmHg 75%
    22:00 -3°C° 0 mm 1 mps 673 mmHg 73%
    23:00 -3°C° 0 mm 1 mps 674 mmHg 73%

    Tomorrow, 23 January, Tuesday

    Time Temperature Precipitation Wind Pressure Humidity
    00:00 -2°C° 0 mm 1 mps 674 mmHg 73%
    01:00 -2°C° 0 mm 1 mps 674 mmHg 73%
    02:00 -2°C° 0 mm 1 mps 674 mmHg 72%
    03:00 -2°C° 0 mm 1 mps 674 mmHg 72%
    04:00 -2°C° 0 mm 1 mps 675 mmHg 72%
    05:00 -2°C° 0 mm 1 mps 675 mmHg 72%
    06:00 -2°C° 0 mm 1 mps 676 mmHg 73%
    07:00 -2°C° 0 mm 1 mps 676 mmHg 73%
    08:00 -1°C° 0.1 mm 1 mps 677 mmHg 76%
    09:00 0°C° 0.1 mm 1 mps 678 mmHg 78%
    10:00 +2°C° 0.1 mm 1 mps 679 mmHg 81%
    11:00 +1°C° 0.1 mm 2 mps 679 mmHg 82%
    12:00 +2°C° 0.1 mm 2 mps 679 mmHg 83%
    13:00 +2°C° 0.1 mm 2 mps 680 mmHg 84%
    14:00 +1°C° 0.1 mm 2 mps 680 mmHg 85%
    15:00 +1°C° 0.1 mm 2 mps 680 mmHg 87%
    16:00 -1°C° 0.1 mm 2 mps 681 mmHg 88%
    17:00 -1°C° 0.1 mm 2 mps 681 mmHg 90%
    18:00 -2°C° 0.1 mm 2 mps 681 mmHg 91%
    19:00 -3°C° 0.1 mm 2 mps 682 mmHg 93%
    20:00 -3°C° 0 mm 2 mps 682 mmHg 93%
    21:00 -3°C° 0 mm 2 mps 682 mmHg 94%
    22:00 -1°C° 0 mm 1 mps 683 mmHg 94%
    23:00 -1°C° 0 mm 1 mps 683 mmHg 94%

    Day after tomorrow, 24 January, Wednesday

    Time Temperature Precipitation Wind Pressure Humidity
    00:00 -2°C° 0 mm 1 mps 683 mmHg 95%
    01:00 -2°C° 0 mm 1 mps 683 mmHg 95%
    02:00 -2°C° 0 mm 1 mps 683 mmHg 95%
    03:00 -2°C° 0 mm 1 mps 683 mmHg 95%
    04:00 -3°C° 0 mm 1 mps 683 mmHg 94%
    05:00 -3°C° 0 mm 1 mps 683 mmHg 94%
    06:00 -3°C° 0 mm 1 mps 683 mmHg 93%
    07:00 -3°C° 0 mm 1 mps 683 mmHg 92%
    08:00 -2°C° 0 mm 1 mps 684 mmHg 89%
    09:00 0°C° 0 mm 1 mps 684 mmHg 85%
    10:00 +1°C° 0 mm 1 mps 685 mmHg 82%
    11:00 +2°C° 0 mm 1 mps 685 mmHg 81%
    12:00 +3°C° 0 mm 1 mps 685 mmHg 80%
    13:00 +4°C° 0 mm 1 mps 685 mmHg 78%
    14:00 +3°C° 0 mm 1 mps 685 mmHg 80%
    15:00 +2°C° 0 mm 0 mps 685 mmHg 82%
    16:00 +1°C° 0 mm 0 mps 684 mmHg 84%
    17:00 +1°C° 0 mm 1 mps 684 mmHg 83%
    18:00 0°C° 0 mm 1 mps 684 mmHg 83%
    19:00 -1°C° 0 mm 1 mps 684 mmHg 83%
    20:00 -1°C° 0 mm 1 mps 684 mmHg 80%
    21:00 -1°C° 0 mm 1 mps 684 mmHg 77%
    22:00 -1°C° 0 mm 1 mps 684 mmHg 74%
    23:00 -1°C° 0 mm 1 mps 683 mmHg 73%

    25 January, Thursday

    Time Temperature Precipitation Wind Pressure Humidity
    00:00 -1°C° 0 mm 1 mps 683 mmHg 71%
    01:00 -1°C° 0 mm 1 mps 683 mmHg 70%
    02:00 -1°C° 0 mm 1 mps 683 mmHg 70%
    03:00 -1°C° 0 mm 1 mps 683 mmHg 70%
    04:00 -1°C° 0 mm 1 mps 682 mmHg 71%
    05:00 -1°C° 0 mm 1 mps 682 mmHg 71%
    06:00 -1°C° 0 mm 1 mps 682 mmHg 72%
    07:00 -1°C° 0 mm 1 mps 682 mmHg 73%
    08:00 +1°C° 0 mm 1 mps 682 mmHg 75%
    09:00 +2°C° 0 mm 1 mps 683 mmHg 76%
    10:00 +4°C° 0 mm 1 mps 683 mmHg 78%
    11:00 +5°C° 0 mm 1 mps 683 mmHg 78%
    12:00 +6°C° 0 mm 1 mps 683 mmHg 78%
    13:00 +6°C° 0 mm 1 mps 682 mmHg 78%
    14:00 +6°C° 0 mm 1 mps 682 mmHg 81%
    15:00 +5°C° 0 mm 1 mps 681 mmHg 83%
    16:00 +4°C° 0 mm 1 mps 681 mmHg 86%
    17:00 +3°C° 0 mm 1 mps 681 mmHg 86%
    18:00 +1°C° 0 mm 2 mps 680 mmHg 87%
    19:00 -1°C° 0 mm 2 mps 680 mmHg 87%
    20:00 -2°C° 0 mm 2 mps 680 mmHg 86%
    21:00 -2°C° 0 mm 2 mps 680 mmHg 86%
    22:00 -2°C° 0 mm 2 mps 680 mmHg 85%
    23:00 -2°C° 0 mm 2 mps 680 mmHg 85%

    26 January, Friday

    Time Temperature Precipitation Wind Pressure Humidity
    00:00 -2°C° 0 mm 2 mps 680 mmHg 84%
    01:00 -2°C° 0 mm 2 mps 679 mmHg 84%
    02:00 -2°C° 0 mm 2 mps 679 mmHg 84%
    03:00 -2°C° 0 mm 2 mps 679 mmHg 83%
    04:00 -2°C° 0 mm 2 mps 679 mmHg 83%
    05:00 -2°C° 0 mm 2 mps 679 mmHg 83%
    06:00 -2°C° 0 mm 2 mps 679 mmHg 83%
    07:00 -2°C° 0 mm 2 mps 679 mmHg 82%
    08:00 -1°C° 0 mm 2 mps 679 mmHg 81%
    09:00 +2°C° 0 mm 2 mps 679 mmHg 80%
    10:00 +3°C° 0 mm 2 mps 680 mmHg 78%
    11:00 +4°C° 0 mm 2 mps 680 mmHg 78%
    12:00 +5°C° 0 mm 2 mps 680 mmHg 77%
    13:00 +6°C° 0 mm 2 mps 679 mmHg 77%
    14:00 +5°C° 0 mm 2 mps 679 mmHg 80%
    15:00 +4°C° 0 mm 2 mps 679 mmHg 83%
    16:00 +3°C° 0 mm 2 mps 679 mmHg 86%
    17:00 +2°C° 0 mm 2 mps 679 mmHg 86%
    18:00 +1°C° 0 mm 2 mps 679 mmHg 87%
    19:00 -1°C° 0 mm 2 mps 679 mmHg 88%
    20:00 -1°C° 0 mm 2 mps 679 mmHg 87%
    21:00 -1°C° 0 mm 2 mps 679 mmHg 87%
    22:00 -1°C° 0 mm 2 mps 679 mmHg 87%
    23:00 -1°C° 0 mm 2 mps 679 mmHg 86%

    27 January, Saturday

    Time Temperature Precipitation Wind Pressure Humidity
    00:00 -1°C° 0 mm 2 mps 679 mmHg 86%
    01:00 -1°C° 0 mm 2 mps 679 mmHg 86%
    02:00 -1°C° 0 mm 2 mps 679 mmHg 86%
    03:00 -1°C° 0 mm 2 mps 679 mmHg 87%
    04:00 -1°C° 0 mm 2 mps 679 mmHg 87%
    05:00 -1°C° 0 mm 2 mps 679 mmHg 88%
    06:00 -1°C° 0 mm 2 mps 680 mmHg 88%
    07:00 +1°C° 0 mm 1 mps 680 mmHg 89%
    08:00 +2°C° 0 mm 1 mps 681 mmHg 87%
    09:00 +3°C° 0 mm 1 mps 681 mmHg 86%
    10:00 +4°C° 0 mm 1 mps 682 mmHg 85%
    11:00 +5°C° 0 mm 1 mps 682 mmHg 83%
    12:00 +6°C° 0 mm 1 mps 683 mmHg 81%
    13:00 +7°C° 0 mm 1 mps 683 mmHg 79%
    14:00 +6°C° 0 mm 1 mps 683 mmHg 82%
    15:00 +5°C° 0 mm 1 mps 683 mmHg 86%
    16:00 +4°C° 0 mm 1 mps 684 mmHg 89%
    17:00 +4°C° 0 mm 1 mps 684 mmHg 90%
    18:00 +3°C° 0 mm 1 mps 684 mmHg 92%
    19:00 +2°C° 0 mm 1 mps 685 mmHg 94%
    20:00 +2°C° 0 mm 1 mps 685 mmHg 94%
    21:00 +2°C° 0 mm 1 mps 686 mmHg 95%
    22:00 +1°C° 0 mm 1 mps 686 mmHg 95%
    23:00 +1°C° 0 mm 1 mps 686 mmHg 95%
    Show more